Regional Weather Roundup
Issued by NWS Sterling, VA

Home | Current Version | Previous Version | Text Only | Print | Product List | Glossary Off
Versions: 1 2 3 4 5 6 7 8 9 10 11 12 13 14 15 16 17 18 19 20 21 22 23 24 25 26 27

000
ASUS41 KLWX 191011
RWRLWX

REGIONAL WEATHER ROUNDUP
NATIONAL WEATHER SERVICE BALTIMORE MD/WASHINGTON DC
600 AM EDT SAT AUG 19 2017

Note: "FAIR" indicates few or no clouds below 12,000 feet
with no significant weather and/or obstructions to visibility.
 TC=TEMPERATURE CELSIUS

 * =Non NWS site. Station does not report precipitation (e.g. rain,
    snow, etc.), thunder, or fog.

DCZ001-MDZ009-015-VAZ040>042-051-053>054-191100-
WASHINGTON METRO

CITY           SKY/WX    TMP DP  RH WIND       PRES   REMARKS
WASHINGTON NAT CLOUDY    79  68  69 NW10      29.87R
DULLES         MOCLDY    71  71 100 CALM      29.88R
ANDREWS AFB    MOCLDY    76  67  73 NW9       29.86R
FT BELVOIR     MOCLDY    76  69  78 NW3       29.86R
QUANTICO       CLOUDY    79  69  71 NW7       29.87R
COLLEGE PARK*  CLOUDY    74  71  91 CALM      29.86R
LEESBURG*      PTCLDY    72  70  94 CALM      29.89S
MANASSAS*      MOCLDY    74  71  91 CALM      29.88R
GAITHERSBURG*  PTCLDY    71  67  87 W5        29.89R

$$

MDZ006>007-011-014-191100-
BALTIMORE METRO

CITY           SKY/WX    TMP DP  RH WIND       PRES   REMARKS
BWI AIRPORT    MOCLDY    74  72  93 W6        29.85R
MD SCIENCE CTR   N/A     78  70  76 MISG      29.84S
MARTIN STATE   MOCLDY    75  75 100 W8        29.86R
ANNAPOLIS      MOCLDY    79  77  94 NW6       29.83R
FORT MEADE*    CLOUDY    72  72 100 CALM      29.88R

$$

MDZ012-015-019>023-191100-
MARYLAND EASTERN SHORE

CITY           SKY/WX    TMP DP  RH WIND       PRES   REMARKS
OCEAN CITY     PTCLDY    74  74 100 W3        29.84S
SALISBURY      CLOUDY    75  75 100 W3        29.84S
BAY BRIDGE AP* MOCLDY    77  72  83 NW10      29.84R
CAMBRIDGE*     PTCLDY    73  73 100 CALM      29.84R

$$

MDZ017>025-191100-
SOUTHERN MARYLAND

CITY           SKY/WX    TMP DP  RH WIND       PRES   REMARKS
PATUXENT RIVER CLOUDY    75  74  96 W3        29.85R
ST INIGOES     PTCLDY    77  75  93 CALM      29.84S
LEONARDTOWN*   MOCLDY    73  72  94 W3        29.87S

$$

MDZ003>005-191100-
NORTH CENTRAL MARYLAND

CITY           SKY/WX    TMP DP  RH WIND       PRES   REMARKS
FREDERICK*     MOCLDY    72  72 100 CALM      29.91R
HAGERSTOWN APT CLEAR     72  64  76 CALM      29.90R
WESTMINSTER*   PTCLDY    72  66  83 W5        29.89R

$$

MDZ501>502-191100-
WESTERN MARYLAND

CITY           SKY/WX    TMP DP  RH WIND       PRES   REMARKS
OAKLAND*       PTCLDY    61  59  94 W6        29.98R
CUMBERLAND*    CLEAR     63  63 100 CALM      29.96R

$$

VAZ025>031-191100-
SHENANDOAH VALLEY

CITY           SKY/WX    TMP DP  RH WIND       PRES   REMARKS
WINCHESTER*    PTCLDY    64  63  94 S3        29.91R
FRONT ROYAL*   MOCLDY    70  68  94 SW5       29.91R
LURAY*         CLOUDY    70  70 100 CALM      29.93S FOG
NEW MARKET*    CLEAR     66  65  96 CALM      29.93S
STAUNTON*      CLEAR     66  63  90 CALM      29.97R
WAYNESBORO*    CLEAR     69  67  93 W7        29.97R

$$

WVZ021-048>050-054>055-191100-
EASTERN WEST VIRGINIA PANHANDLE

CITY           SKY/WX    TMP DP  RH WIND       PRES   REMARKS
MARTINSBURG    CLEAR     70  63  78 CALM      29.89R
PETERSBURG*    PTCLDY    65  65  98 CALM      29.95R

$$

VAZ036>039-050-191100-
CENTRAL FOOTHILLS

CITY           SKY/WX    TMP DP  RH WIND       PRES   REMARKS
CHARLOTTESVILL PTCLDY    75  73  93 CALM      29.90R
CULPEPER*      FOG       71  71 100 CALM      29.90R VSB 3/4
ORANGE*        CLOUDY    72  70  94 CALM      29.89R
GORDONSVILLE*  FOG       73  73 100 CALM      29.89R VSB 3/4
WARRENTON*     FOG       71  68  90 CALM      29.88R VSB 3/4

$$

VAZ055>057-191100-
NORTH AND CENTRAL PIEDMONT

CITY           SKY/WX    TMP DP  RH WIND       PRES   REMARKS
FREDERICKSBRG* MOCLDY    76  76 100 CALM      29.86S
STAFFORD*      CLOUDY    74  73  96 CALM      29.92R

$$

NCZ024-NYZ072-PAZ021-071-VAZ022-071-191100-
OTHER REGIONAL OBSERVATIONS

CITY           SKY/WX    TMP DP  RH WIND       PRES   REMARKS
NEW YORK CITY  PTCLDY    74  72  93 CALM      29.84R
PHILADELPHIA   MOCLDY    76  72  87 W8        29.84R
PITTSBURGH     PTCLDY    66  64  93 CALM      29.92R
ROANOKE        CLEAR     68  64  87 W5        29.98R
RICHMOND       CLOUDY    75  74  96 N5        29.87R
RALEIGH        PTCLDY    73  72  96 SW5       29.92R

$$

ANZ530>537-191100-
MARINE OBSERVATIONS

STATION/POSITION TIME  TEMP    WIND        PRES
                       AIR SEA DIR/SP/G
                 (UTC) (F)     (DEG/KT/KT) (MB)
THOMAS PT LIGHT  1000   78 80  320/ 12/ 14   N/A
BALT KEY BRIDGE  0948   78     290/ 10/ 12 1010.5R
COVE POINT       0948   77     320/  6/  8 1011.3R
LEWISETTA        0948   76 83  250/  5/  6 1010.8R
SOLOMONS ISLAND  0948   77 81  290/  3/  6   N/A
PINEY POINT      0948          320/ 10/ 11   N/A

$$





USA.gov is the U.S. government's official web portal to all federal, state and local government web resources and services.